Orbital Elements at Epoch 2459200.5 (2020-Dec-17.0) TDB
Reference: JPL 16 (heliocentric ecliptic J2000)
Element | Value | Uncertainty (1-sigma) | Units |
e | .2100298675904303 | 6.3883e-08 | |
a | 2.328522565488594 | 1.2841e-08 | au |
q | 1.839463279377695 | 1.4582e-07 | au |
i | 23.88123373471085 | 7.964e-06 | deg |
node | 254.5719431224699 | 1.3139e-05 | deg |
peri | 98.29182913570055 | 2.2442e-05 | deg |
M | 250.3655139769666 | 1.8384e-05 | deg |
tp | 2459595.742636404358 (2022-Jan-16.24263640) | 6.7656e-05 | TDB |
period | 1297.833868402277 3.55 | 1.0736e-05 2.939e-08 | d yr |
n | .2773852715395575 | 2.2945e-09 | deg/d |
Q | 2.817581851599492 | 1.5538e-08 | au |
|
| | Orbit Determination Parameters
Additional Information
|